Sitka, AK

10:21 AM AKDT on August 29, 2016 (GMT -0800)
Sitka Rocky Gutierrez

Weather History for PASI - October, 2012

Change the Weather History Date:

Thursday, October 25, 2012

  Actual Average Record
Temperature  
Mean Temperature 37 °F -  
Max Temperature 42 °F 48 °F 59 °F (1962)
Min Temperature 33 °F 39 °F 28 °F (1991)
Degree Days  
Heating Degree Days 28    
Moisture  
Dew Point 15 °F    
Average Humidity 42    
Maximum Humidity 52    
Minimum Humidity 33    
Precipitation  
Precipitation 0.00 in - - ()
Sea Level Pressure  
Sea Level Pressure 30.36 in    
Wind  
Wind Speed 6 mph (East)    
Max Wind Speed 13 mph    
Max Gust Speed 21 mph    
Visibility 10 miles    
Events      
Averages and records for this station are not official NWS values.
T = Trace of Precipitation, MM = Missing Value Source: NWS Daily Summary

Daily Weather History Graph

Daily Weather History Graph

Search for Another Location

Airport or City:

Trip Planner

Search our weather history database for the weather conditions in past years. The results will help you decide how hot, cold, wet, or windy it might be!

Date:

Astronomy

Oct. 25, 2012 Rise Set
Actual Time 7:58 AM AKDT 5:31 PM AKDT
Civil Twilight 7:18 AM AKDT 6:11 PM AKDT
Nautical Twilight 6:33 AM AKDT 6:56 PM AKDT
Astronomical Twilight 5:49 AM AKDT 7:40 PM AKDT
Moon 3:56 PM AKDT (10/25) 3:21 AM AKDT (10/25)
Length of Visible Light 10h 53m
Length of Day
9h 33m
Waxing Gibbous, 85% of the Moon is Illuminated
Oct 25
Waxing Gibbous
Oct 29
Full
Nov 6
Last Quarter
Nov 13
New
Nov 20
First Quarter

Hourly Weather History & Observations

Time (AKDT) Temp. Windchill Dew Point Humidity Pressure Visibility Wind Dir Wind Speed Gust Speed Precip Events Conditions
12:53 AM 34.0 °F 31.0 °F 17.1 °F 50% 30.34 in 10.0 mi East 3.5 mph - N/A   Clear
1:53 AM 37.0 °F 31.0 °F 18.0 °F 46% 30.36 in 10.0 mi SE 8.1 mph - N/A   Clear
2:53 AM 35.1 °F 30.1 °F 17.1 °F 48% 30.37 in 10.0 mi East 5.8 mph - N/A   Clear
3:53 AM 33.1 °F 26.9 °F 17.1 °F 52% 30.37 in 10.0 mi East 6.9 mph - N/A   Clear
4:53 AM 35.1 °F 31.0 °F 16.0 °F 46% 30.37 in 10.0 mi East 4.6 mph - N/A   Clear
5:53 AM 33.1 °F 27.7 °F 17.1 °F 52% 30.36 in 10.0 mi East 5.8 mph - N/A   Clear
6:53 AM 34.0 °F 28.0 °F 17.1 °F 50% 30.36 in 10.0 mi East 6.9 mph - N/A   Clear
7:53 AM 36.0 °F 32.1 °F 14.0 °F 41% 30.36 in 10.0 mi Variable 4.6 mph - N/A   Clear
8:53 AM 37.0 °F 32.4 °F 15.1 °F 41% 30.36 in 10.0 mi Variable 5.8 mph - N/A   Clear
9:53 AM 37.9 °F 32.1 °F 15.1 °F 39% 30.38 in 10.0 mi ESE 8.1 mph - N/A   Clear
10:53 AM 39.0 °F 33.4 °F 12.9 °F 34% 30.39 in 10.0 mi NE 8.1 mph - N/A   Clear
11:53 AM 39.9 °F 32.9 °F 12.9 °F 33% 30.38 in 10.0 mi NE 11.5 mph - N/A   Clear
12:53 PM 41.0 °F 34.3 °F 16.0 °F 36% 30.38 in 10.0 mi East 11.5 mph 20.7 mph N/A   Clear
1:53 PM 41.0 °F 34.7 °F 16.0 °F 36% 30.38 in 10.0 mi East 10.4 mph - N/A   Clear
2:53 PM 41.0 °F 33.9 °F 17.1 °F 38% 30.36 in 10.0 mi ESE 12.7 mph - N/A   Clear
3:53 PM 39.9 °F 32.9 °F 17.1 °F 40% 30.37 in 10.0 mi ESE 11.5 mph 18.4 mph N/A   Clear
4:53 PM 39.0 °F 35.7 °F 14.0 °F 36% 30.36 in 10.0 mi East 4.6 mph - N/A   Clear
5:53 PM 37.0 °F 34.5 °F 15.1 °F 41% 30.35 in 10.0 mi NE 3.5 mph - N/A   Clear
6:53 PM 35.1 °F 31.0 °F 15.1 °F 44% 30.33 in 10.0 mi ENE 4.6 mph - N/A   Clear
7:53 PM 37.0 °F 34.5 °F 14.0 °F 39% 30.32 in 10.0 mi ENE 3.5 mph - N/A   Clear
8:53 PM 37.0 °F 34.5 °F 14.0 °F 39% 30.32 in 10.0 mi East 3.5 mph - N/A   Clear
9:53 PM 34.0 °F - 14.0 °F 44% 30.32 in 10.0 mi Calm Calm - N/A   Clear
10:53 PM 34.0 °F - 14.0 °F 44% 30.32 in 10.0 mi Calm Calm - N/A   Clear
11:53 PM 35.1 °F 31.0 °F 15.1 °F 44% 30.32 in 10.0 mi East 4.6 mph - N/A   Clear